Tracking 33188 objects as of 10-Feb-2026
HD Live streaming from Space Station
objects crossing your sky now

STARLINK-3805

Track STARLINK-3805 now!
10-day predictions
STARLINK-3805 is classified as:


NORAD ID: 52377
Int'l Code: 2022-045AY
Perigee: 545.9 km
Apogee: 547.8 km
Inclination: 53.2 °
Period: 95.4 minutes
Semi major axis: 6917 km
RCS: Unknown
Launch date: April 29, 2022
Source: United States (US)
Launch site: AIR FORCE EASTERN TEST RANGE (AFETR)
Your satellite tracking list
Your tracking list is empty




NASA's NSSDC Master Catalog

Two Line Element Set (TLE):
1 52377U 22045AY  26041.01256924 -.00000584  00000-0 -18606-4 0  9993
2 52377  53.2191 313.5873 0001377  86.7405 273.3744 15.08841502211733
Source of the keplerian elements: AFSPC